SIA26 WSSS-EDDF

Flight info

Callsign SIA26
Flight time N/A
Altitude 30000
Route AROSO5B AROSO Y513 KALIL Y501 RINBA Y503 VPL P628 PPB/N0512F320 P628 ISKEN/N0504F340 P628 RK G202 ZB L750 RANAH B449 ETRAP B447 KRS B143 TUNEK A909 RODAR/N0491F360 M11 REBLO UM11 CRM UL746 ODERO DCT OPT DCT IRLOX DCT BUDOP DCT MAREG DCT KOVEL DCT DITIS DCT RAPET T170 VAGAB/N0461F240 T170 GAPLA T178 KERAX KERAX5D
Aircraft B77W/H-SDE1E2E3FGHIJ2J3J4J5M1RWXY/LB1D1

Departure

Time 2026-05-08 05:42
Airport Singapore Changi Airport (WSSS)

Arrival

Time N/A
Airport Frankfurt Main Airport (EDDF)
Time Latitude Longitude Altitude Speed Heading
2026-05-08 05:25 1.35277 103.98404 30 ft 0 kts 109°
2026-05-08 05:33 1.35281 103.98392 28 ft 4 kts 107°
2026-05-08 05:33 1.35287 103.98366 28 ft 4 kts 97°
2026-05-08 05:33 1.35288 103.98339 28 ft 4 kts 83°
2026-05-08 05:33 1.35282 103.98314 27 ft 4 kts 60°
2026-05-08 05:34 1.35266 103.98296 28 ft 2 kts 24°
2026-05-08 05:34 1.35265 103.98295 28 ft 0 kts 22°
2026-05-08 05:36 1.35274 103.98300 28 ft 5 kts 23°
2026-05-08 05:36 1.35338 103.98309 30 ft 14 kts 351°
2026-05-08 05:36 1.35435 103.98284 30 ft 16 kts 355°
2026-05-08 05:36 1.35567 103.98324 30 ft 23 kts 22°
2026-05-08 05:37 1.35714 103.98386 30 ft 23 kts 22°
2026-05-08 05:37 1.35859 103.98446 30 ft 22 kts 22°
2026-05-08 05:37 1.35996 103.98503 30 ft 20 kts 22°
2026-05-08 05:37 1.36127 103.98558 30 ft 20 kts 22°
2026-05-08 05:38 1.36260 103.98614 30 ft 23 kts 22°
2026-05-08 05:38 1.36425 103.98683 30 ft 26 kts 23°
2026-05-08 05:38 1.36598 103.98757 30 ft 30 kts 23°
2026-05-08 05:38 1.36740 103.98816 30 ft 22 kts 22°
2026-05-08 05:39 1.36764 103.98948 29 ft 26 kts 113°
2026-05-08 05:39 1.36686 103.99131 29 ft 29 kts 113°
2026-05-08 05:39 1.36608 103.99314 29 ft 29 kts 113°
2026-05-08 05:39 1.36529 103.99500 29 ft 27 kts 113°
2026-05-08 05:40 1.36455 103.99674 29 ft 29 kts 113°
2026-05-08 05:40 1.36384 103.99831 30 ft 21 kts 128°
2026-05-08 05:40 1.36238 103.99878 31 ft 21 kts 172°
2026-05-08 05:40 1.36086 103.99853 31 ft 35 kts 203°
2026-05-08 05:41 1.35638 103.99664 34 ft 105 kts 203°
2026-05-08 05:41 1.34761 103.99294 34 ft 167 kts 203°
2026-05-08 05:41 1.33551 103.98783 56 ft 209 kts 204°
2026-05-08 05:41 1.32209 103.98167 486 ft 212 kts 206°
2026-05-08 05:42 1.30862 103.97559 1079 ft 215 kts 202°
2026-05-08 05:42 1.29465 103.96997 1691 ft 218 kts 202°
2026-05-08 05:42 1.27990 103.96396 1963 ft 238 kts 202°
2026-05-08 05:42 1.26428 103.95754 2400 ft 246 kts 202°
2026-05-08 05:43 1.24822 103.95095 2896 ft 253 kts 199°
2026-05-08 05:43 1.23048 103.94902 3171 ft 265 kts 166°
2026-05-08 05:43 1.21402 103.95747 3594 ft 272 kts 139°
2026-05-08 05:43 1.19982 103.97031 4083 ft 278 kts 139°
2026-05-08 05:44 1.18522 103.98318 4738 ft 281 kts 139°
2026-05-08 05:44 1.17093 103.99621 5343 ft 281 kts 131°
2026-05-08 05:44 1.16172 104.01382 5819 ft 288 kts 100°
2026-05-08 05:44 1.16251 104.03372 6383 ft 291 kts 71°
2026-05-08 05:45 1.17194 104.05120 6966 ft 291 kts 52°
2026-05-08 05:45 1.18468 104.06720 7515 ft 297 kts 51°
2026-05-08 05:45 1.19766 104.08335 8104 ft 297 kts 47°
2026-05-08 05:45 1.21393 104.09593 8534 ft 298 kts 27°
2026-05-08 05:46 1.23253 104.10552 8999 ft 303 kts 28°
2026-05-08 05:46 1.25112 104.11569 9573 ft 305 kts 29°
2026-05-08 05:46 1.27064 104.12368 10032 ft 307 kts
2026-05-08 05:46 1.29221 104.12241 10201 ft 322 kts 340°
2026-05-08 05:47 1.31188 104.11091 10327 ft 336 kts 320°
2026-05-08 05:47 1.33003 104.09527 10468 ft 353 kts 319°
2026-05-08 05:47 1.34912 104.07875 10600 ft 372 kts 319°
2026-05-08 05:47 1.36910 104.06161 10920 ft 383 kts 320°
2026-05-08 05:48 1.38962 104.04415 11422 ft 390 kts 320°
2026-05-08 05:48 1.41023 104.02696 11989 ft 390 kts 324°
2026-05-08 05:48 1.43428 104.01420 12463 ft 394 kts 343°
2026-05-08 05:48 1.46070 104.00639 13018 ft 399 kts 344°
2026-05-08 05:49 1.48737 103.99840 13642 ft 401 kts 344°
2026-05-08 05:49 1.51413 103.99010 14168 ft 404 kts 343°
2026-05-08 05:49 1.54102 103.98157 14678 ft 407 kts 343°
2026-05-08 05:49 1.56807 103.97288 15155 ft 411 kts 343°
2026-05-08 05:50 1.59545 103.96402 15637 ft 414 kts 343°
2026-05-08 05:50 1.62296 103.95510 16120 ft 417 kts 343°
2026-05-08 05:50 1.65069 103.94611 16592 ft 421 kts 343°
2026-05-08 05:50 1.67871 103.93703 17057 ft 424 kts 343°
2026-05-08 05:51 1.70689 103.92790 17512 ft 427 kts 343°
2026-05-08 05:51 1.73519 103.91857 17941 ft 428 kts 340°
2026-05-08 05:51 1.76112 103.90427 18159 ft 438 kts 320°
2026-05-08 05:51 1.78138 103.88141 18467 ft 440 kts 307°
2026-05-08 05:52 1.79945 103.85654 18787 ft 444 kts 308°
2026-05-08 05:52 1.81811 103.83179 19171 ft 447 kts 308°
2026-05-08 05:52 1.83714 103.80703 19594 ft 449 kts 308°
2026-05-08 05:52 1.85630 103.78225 20000 ft 451 kts 309°
2026-05-08 05:53 1.87558 103.75734 20376 ft 454 kts 309°
2026-05-08 05:53 1.89494 103.73229 20743 ft 457 kts 309°
2026-05-08 05:53 1.91443 103.70704 21126 ft 460 kts 309°
2026-05-08 05:53 1.93382 103.68187 21487 ft 463 kts 309°
2026-05-08 05:54 1.95347 103.65633 21842 ft 465 kts 309°
2026-05-08 05:54 1.97327 103.63059 22200 ft 468 kts 309°
2026-05-08 05:54 1.99318 103.60470 22568 ft 470 kts 309°
2026-05-08 05:54 2.01320 103.57867 22905 ft 473 kts 309°
2026-05-08 05:55 2.03335 103.55248 23244 ft 476 kts 308°
2026-05-08 05:55 2.05357 103.52619 23532 ft 479 kts 309°
2026-05-08 05:55 2.07393 103.49973 23805 ft 481 kts 309°
2026-05-08 05:55 2.09438 103.47314 24129 ft 482 kts 308°
2026-05-08 05:56 2.11482 103.44656 24439 ft 483 kts 309°
2026-05-08 05:56 2.13528 103.41989 24724 ft 484 kts 307°
2026-05-08 05:56 2.15271 103.39099 24899 ft 489 kts 292°
2026-05-08 05:56 2.16288 103.35855 25081 ft 491 kts 285°
2026-05-08 05:57 2.17160 103.32547 25302 ft 494 kts 285°
2026-05-08 05:57 2.18039 103.29225 25570 ft 495 kts 285°
2026-05-08 05:57 2.18950 103.25897 25844 ft 497 kts 286°
2026-05-08 05:57 2.19882 103.22612 26105 ft 498 kts 287°
2026-05-08 05:58 2.20850 103.19280 26354 ft 500 kts 287°
2026-05-08 05:58 2.21848 103.15892 26606 ft 502 kts 287°
2026-05-08 05:58 2.22838 103.12538 26851 ft 504 kts 287°
2026-05-08 05:58 2.23832 103.09172 27080 ft 506 kts 287°
2026-05-08 05:59 2.24827 103.05795 27314 ft 508 kts 287°
2026-05-08 05:59 2.25813 103.02439 27548 ft 510 kts 287°
2026-05-08 05:59 2.26812 102.99033 27758 ft 511 kts 287°
2026-05-08 05:59 2.27818 102.95605 27987 ft 513 kts 287°
2026-05-08 06:00 2.28825 102.92171 28218 ft 515 kts 287°
2026-05-08 06:00 2.29837 102.88720 28415 ft 517 kts 287°
2026-05-08 06:00 2.30847 102.85273 28628 ft 518 kts 287°
2026-05-08 06:00 2.31853 102.81802 28817 ft 520 kts 287°
2026-05-08 06:01 2.32856 102.78325 29012 ft 521 kts 287°
2026-05-08 06:01 2.33857 102.74881 29179 ft 523 kts 287°
2026-05-08 06:01 2.34881 102.71381 29362 ft 524 kts 287°
2026-05-08 06:01 2.35907 102.67883 29522 ft 525 kts 287°
2026-05-08 06:02 2.36936 102.64371 29691 ft 526 kts 287°
2026-05-08 06:02 2.38997 102.57325 29830 ft 528 kts 287°
2026-05-08 06:03 2.41051 102.50291 29886 ft 526 kts 287°
2026-05-08 06:03 2.43102 102.43269 29884 ft 525 kts 287°
2026-05-08 06:04 2.44871 102.37461 29883 ft 522 kts 292°
2026-05-08 06:04 2.46483 102.34223 29892 ft 520 kts 304°
2026-05-08 06:04 2.49412 102.30443 29891 ft 519 kts 315°
2026-05-08 06:05 2.55021 102.25946 29866 ft 518 kts 325°
2026-05-08 06:05 2.59846 102.22279 29879 ft 521 kts 323°
2026-05-08 06:06 2.65521 102.17808 29858 ft 523 kts 323°
2026-05-08 06:06 2.71241 102.13294 29872 ft 523 kts 323°
2026-05-08 06:07 2.76958 102.08795 29866 ft 523 kts 323°
2026-05-08 06:07 2.82644 102.04325 29862 ft 522 kts 323°
2026-05-08 06:08 2.88355 101.99835 29866 ft 521 kts 323°
2026-05-08 06:08 2.94059 101.95348 29859 ft 520 kts 323°
2026-05-08 06:09 2.99753 101.90870 29868 ft 520 kts 323°
2026-05-08 06:09 3.05452 101.86387 29872 ft 520 kts 323°
2026-05-08 06:10 3.11109 101.81935 29879 ft 521 kts 323°
2026-05-08 06:10 3.16816 101.77443 29875 ft 521 kts 323°
2026-05-08 06:11 3.22517 101.72956 29886 ft 521 kts 323°
2026-05-08 06:11 3.28224 101.68462 29862 ft 522 kts 323°
2026-05-08 06:12 3.34159 101.64296 29873 ft 520 kts 332°
2026-05-08 06:12 3.40620 101.61220 29883 ft 518 kts 339°
2026-05-08 06:13 3.47251 101.58362 29870 ft 518 kts 338°
2026-05-08 06:13 3.53859 101.55461 29865 ft 518 kts 338°
2026-05-08 06:14 3.60442 101.52539 29876 ft 517 kts 338°
2026-05-08 06:14 3.67026 101.49613 29873 ft 517 kts 338°
2026-05-08 06:15 3.73608 101.46692 29873 ft 517 kts 338°
2026-05-08 06:15 3.80189 101.43770 29864 ft 517 kts 338°
2026-05-08 06:16 3.86728 101.40867 29875 ft 518 kts 338°
2026-05-08 06:16 3.93335 101.37930 29878 ft 521 kts 338°
2026-05-08 06:17 4.03270 101.33510 29868 ft 520 kts 338°
2026-05-08 06:17 4.09876 101.30569 29873 ft 518 kts 338°
2026-05-08 06:18 4.16458 101.27639 29864 ft 517 kts 338°
2026-05-08 06:18 4.23038 101.24711 29879 ft 517 kts 338°
2026-05-08 06:19 4.29571 101.21801 29858 ft 516 kts 338°
2026-05-08 06:19 4.36138 101.18876 29854 ft 516 kts 338°
2026-05-08 06:20 4.42700 101.15953 29842 ft 516 kts 338°
2026-05-08 06:20 4.49263 101.13028 29825 ft 516 kts 338°
2026-05-08 06:21 4.55838 101.10098 29833 ft 518 kts 338°
2026-05-08 06:21 4.62442 101.07200 29836 ft 519 kts 339°
2026-05-08 06:22 4.69093 101.04357 29842 ft 520 kts 339°
2026-05-08 06:22 4.75714 101.01521 29851 ft 521 kts 339°
2026-05-08 06:23 4.82381 100.98649 29850 ft 521 kts 339°
2026-05-08 06:23 4.89045 100.95776 29865 ft 520 kts 338°
2026-05-08 06:24 4.95686 100.92914 29868 ft 520 kts 338°
2026-05-08 06:24 5.02327 100.90050 29874 ft 519 kts 338°
2026-05-08 06:25 5.08929 100.87195 29858 ft 519 kts 338°
2026-05-08 06:25 5.15564 100.84323 29864 ft 519 kts 338°
2026-05-08 06:26 5.22197 100.81452 29856 ft 519 kts 338°
2026-05-08 06:26 5.28832 100.78581 29856 ft 519 kts 338°
2026-05-08 06:27 5.35333 100.75421 29848 ft 521 kts 329°
2026-05-08 06:27 5.41127 100.71046 29844 ft 523 kts 317°
2026-05-08 06:28 5.46239 100.65828 29847 ft 523 kts 315°
2026-05-08 06:28 5.51302 100.60567 29838 ft 523 kts 315°
2026-05-08 06:29 5.56392 100.55340 29837 ft 524 kts 315°
2026-05-08 06:29 5.61504 100.50129 29835 ft 524 kts 315°
2026-05-08 06:30 5.66587 100.44953 29838 ft 523 kts 315°
2026-05-08 06:30 5.71701 100.39737 29845 ft 523 kts 315°
2026-05-08 06:31 5.76812 100.34522 29841 ft 522 kts 315°
2026-05-08 06:31 5.81907 100.29321 29840 ft 522 kts 315°
2026-05-08 06:32 5.86976 100.24146 29844 ft 522 kts 315°
2026-05-08 06:32 5.92066 100.18947 29845 ft 522 kts 315°
2026-05-08 06:33 5.97156 100.13747 29847 ft 522 kts 315°
2026-05-08 06:33 6.02262 100.08530 29849 ft 523 kts 315°
2026-05-08 06:34 6.07357 100.03320 29846 ft 523 kts 315°
2026-05-08 06:34 6.12436 99.98125 29850 ft 523 kts 315°
2026-05-08 06:35 6.17520 99.92900 29847 ft 523 kts 315°
2026-05-08 06:35 6.22600 99.87672 29846 ft 523 kts 315°
2026-05-08 06:36 6.27685 99.82440 29855 ft 522 kts 315°
2026-05-08 06:36 6.32689 99.77137 29842 ft 523 kts 309°
2026-05-08 06:37 6.36637 99.71001 29864 ft 524 kts 297°
2026-05-08 06:37 6.39352 99.64251 29858 ft 524 kts 290°
2026-05-08 06:38 6.41834 99.57344 29858 ft 524 kts 290°
2026-05-08 06:38 6.44367 99.50479 29855 ft 524 kts 290°
2026-05-08 06:39 6.46920 99.43655 29854 ft 524 kts 291°
2026-05-08 06:39 6.49489 99.36777 29858 ft 525 kts 290°
2026-05-08 06:40 6.52051 99.29891 29858 ft 525 kts 290°
2026-05-08 06:40 6.54603 99.23005 29858 ft 525 kts 290°
2026-05-08 06:41 6.57155 99.16113 29860 ft 525 kts 290°
2026-05-08 06:41 6.59709 99.09217 29857 ft 525 kts 290°
2026-05-08 06:42 6.62244 99.02370 29856 ft 526 kts 290°
2026-05-08 06:42 6.64795 98.95479 29859 ft 526 kts 290°
2026-05-08 06:43 6.67349 98.88575 29859 ft 526 kts 290°
2026-05-08 06:43 6.69900 98.81674 29858 ft 526 kts 290°
2026-05-08 06:44 6.72453 98.74767 29858 ft 526 kts 290°
2026-05-08 06:44 6.75004 98.67860 29857 ft 526 kts 290°
2026-05-08 06:45 6.77553 98.60956 29859 ft 526 kts 290°
2026-05-08 06:45 6.80088 98.54087 29858 ft 527 kts 290°
2026-05-08 06:46 6.82642 98.47162 29858 ft 527 kts 290°
2026-05-08 06:46 6.85191 98.40245 29858 ft 527 kts 290°
2026-05-08 06:47 6.87738 98.33335 29853 ft 527 kts 290°
2026-05-08 06:47 6.90287 98.26413 29852 ft 527 kts 290°
2026-05-08 06:48 6.92834 98.19493 29859 ft 528 kts 290°
2026-05-08 06:48 6.95383 98.12560 29853 ft 528 kts 290°
2026-05-08 06:49 6.97924 98.05674 29847 ft 526 kts 292°
2026-05-08 06:49 6.99528 98.02373 29837 ft 525 kts 303°
2026-05-08 06:49 7.01664 97.99408 29856 ft 523 kts 311°
2026-05-08 06:50 7.07062 97.94552 29856 ft 520 kts 326°
2026-05-08 06:50 7.12989 97.90311 29860 ft 524 kts 326°
2026-05-08 06:51 7.17928 97.86731 29864 ft 526 kts 326°
2026-05-08 06:51 7.23849 97.82365 29854 ft 527 kts 325°
2026-05-08 06:52 7.29746 97.77987 29853 ft 526 kts 325°
2026-05-08 06:52 7.35630 97.73619 29850 ft 524 kts 325°
2026-05-08 06:53 7.41502 97.69265 29853 ft 523 kts 325°
2026-05-08 06:53 7.47361 97.64920 29854 ft 522 kts 325°
2026-05-08 06:54 7.53211 97.60580 29854 ft 522 kts 325°
2026-05-08 06:54 7.59026 97.56264 29853 ft 521 kts 325°
2026-05-08 06:55 7.64873 97.51923 29851 ft 521 kts 325°
2026-05-08 06:55 7.70718 97.47594 29853 ft 521 kts 325°
2026-05-08 06:56 7.76534 97.43292 29852 ft 521 kts 325°
2026-05-08 06:56 7.82383 97.38962 29853 ft 522 kts 325°
2026-05-08 06:57 7.88229 97.34631 29855 ft 522 kts 325°
2026-05-08 06:57 7.94082 97.30291 29855 ft 522 kts 325°
2026-05-08 06:58 7.99937 97.25950 29855 ft 522 kts 325°
2026-05-08 06:58 8.05392 97.21110 29853 ft 524 kts 313°
2026-05-08 06:59 8.09797 97.15230 29853 ft 525 kts 302°
2026-05-08 06:59 8.13539 97.08897 29861 ft 525 kts 301°
2026-05-08 07:00 8.17276 97.02557 29855 ft 526 kts 302°
2026-05-08 07:00 8.21033 96.96268 29860 ft 526 kts 302°
2026-05-08 07:01 8.24833 96.89948 29859 ft 526 kts 302°
2026-05-08 07:01 8.28638 96.83622 29847 ft 526 kts 302°
2026-05-08 07:02 8.32428 96.77313 29855 ft 525 kts 301°
2026-05-08 07:02 8.36209 96.71010 29852 ft 524 kts 301°
2026-05-08 07:03 8.39982 96.64719 29854 ft 523 kts 301°
2026-05-08 07:03 8.43744 96.58443 29854 ft 522 kts 301°
2026-05-08 07:04 8.47506 96.52166 29855 ft 522 kts 301°
2026-05-08 07:04 8.51238 96.45934 29858 ft 522 kts 301°
2026-05-08 07:05 8.55002 96.39648 29855 ft 523 kts 301°
2026-05-08 07:05 8.58770 96.33350 29856 ft 524 kts 301°
2026-05-08 07:06 8.62542 96.27042 29853 ft 524 kts 301°
2026-05-08 07:06 8.66319 96.20724 29855 ft 525 kts 301°
2026-05-08 07:07 8.70092 96.14409 29856 ft 524 kts 301°
2026-05-08 07:07 8.73831 96.08147 29852 ft 523 kts 301°
2026-05-08 07:08 8.77588 96.01854 29850 ft 522 kts 301°
2026-05-08 07:08 8.81337 95.95566 29852 ft 522 kts 301°